Salem, OR

10:02 PM PDT on May 26, 2017 (GMT -0700)
McNary

Weather History for KSLE - December, 2012

Change the Weather History Date:

Thursday, December 6, 2012

  Actual Average Record
Temperature  
Mean Temperature 43 °F 41 °F  
Max Temperature 49 °F 47 °F 60 °F (1965)
Min Temperature 36 °F 35 °F 18 °F (1956)
Degree Days  
Heating Degree Days 22 24  
Month to date heating degree days 102 141  
Since 1 July heating degree days 1016 1258  
Cooling Degree Days 0 0  
Month to date cooling degree days 0 0  
Year to date cooling degree days 317 290  
Moisture  
Dew Point 41 °F    
Average Humidity 89    
Maximum Humidity 100    
Minimum Humidity 77    
Precipitation  
Precipitation 0.03 in 0.23 in 4.30 in (1933)
Month to date precipitation 2.60 1.46  
Year to date precipitation 49.60 34.27  
Snow  
Snow 0.00 in - - ()
Snow Depth 0.00 in    
Sea Level Pressure  
Sea Level Pressure 30.23 in    
Wind  
Wind Speed 11 mph (South)    
Max Wind Speed 17 mph    
Max Gust Speed 22 mph    
Visibility 10 miles    
Events Rain    
T = Trace of Precipitation, MM = Missing Value Source: NWS Daily Summary

Daily Weather History Graph

Daily Weather History Graph

Search for Another Location

Airport or City:

Trip Planner

Search our weather history database for the weather conditions in past years. The results will help you decide how hot, cold, wet, or windy it might be!

Date:

Astronomy

Dec. 06, 2012 Rise Set
Actual Time 7:35 AM PST 4:30 PM PST
Civil Twilight 7:02 AM PST 5:04 PM PST
Nautical Twilight 6:25 AM PST 5:41 PM PST
Astronomical Twilight 5:49 AM PST 6:16 PM PST
Moon No Moon Rise 12:15 PM PST (12/6)
Length of Visible Light 10h 01m
Length of Day
8h 55m
Waning Gibbous, 48% of the Moon is Illuminated
Dec 6
Waning Gibbous
Dec 13
New
Dec 19
First Quarter
Dec 28
Full
Jan 4
Last Quarter

Hourly Weather History & Observations

Time (PST) Temp. Windchill Dew Point Humidity Pressure Visibility Wind Dir Wind Speed Gust Speed Precip Events Conditions
12:56 AM 39.9 °F - 39.0 °F 97% 30.25 in 10.0 mi Calm Calm - N/A   Clear
1:53 AM 37.4 °F 33.8 °F 37.4 °F 100% 30.24 in 9.0 mi South 4.6 mph - N/A   Scattered Clouds
1:56 AM 39.0 °F 34.8 °F 37.9 °F 96% 30.25 in 10.0 mi SSW 5.8 mph - N/A   Mostly Cloudy
2:42 AM 39.2 °F 37.0 °F 39.2 °F 100% 30.25 in 9.0 mi SSE 3.5 mph - N/A   Partly Cloudy
2:56 AM 39.9 °F 37.8 °F 39.0 °F 97% 30.26 in 9.0 mi South 3.5 mph - N/A   Clear
3:56 AM 39.9 °F 34.5 °F 39.0 °F 97% 30.24 in 10.0 mi SSE 8.1 mph - N/A   Clear
4:56 AM 39.9 °F 37.8 °F 39.9 °F 100% 30.24 in 10.0 mi SSE 3.5 mph - N/A   Mostly Cloudy
5:56 AM 41.0 °F 35.2 °F 39.9 °F 96% 30.23 in 10.0 mi South 9.2 mph - 0.00 in Rain Light Rain
6:56 AM 42.1 °F 36.1 °F 39.9 °F 92% 30.24 in 10.0 mi South 10.4 mph - 0.00 in   Overcast
7:56 AM 41.0 °F 35.2 °F 39.9 °F 96% 30.22 in 10.0 mi South 9.2 mph - N/A   Overcast
8:56 AM 42.1 °F 36.6 °F 39.9 °F 92% 30.25 in 10.0 mi South 9.2 mph - N/A   Mostly Cloudy
9:56 AM 44.1 °F 39.0 °F 39.9 °F 85% 30.25 in 10.0 mi South 9.2 mph - N/A   Mostly Cloudy
10:56 AM 45.0 °F 38.9 °F 39.9 °F 82% 30.25 in 10.0 mi South 12.7 mph - N/A   Mostly Cloudy
11:56 AM 46.9 °F - 41.0 °F 80% 30.23 in 10.0 mi South 12.7 mph - N/A   Mostly Cloudy
12:56 PM 48.9 °F - 41.0 °F 74% 30.22 in 10.0 mi South 15.0 mph - N/A   Mostly Cloudy
1:56 PM 48.0 °F - 41.0 °F 77% 30.20 in 10.0 mi South 15.0 mph 21.9 mph N/A   Overcast
2:56 PM 48.0 °F - 42.1 °F 80% 30.20 in 10.0 mi South 10.4 mph - 0.00 in Rain Light Rain
3:56 PM 46.0 °F 39.3 °F 43.0 °F 89% 30.20 in 10.0 mi South 16.1 mph - 0.01 in   Mostly Cloudy
4:56 PM 45.0 °F 38.9 °F 42.1 °F 90% 30.20 in 10.0 mi South 12.7 mph - N/A   Mostly Cloudy
5:56 PM 46.0 °F 40.6 °F 43.0 °F 89% 30.20 in 10.0 mi South 11.5 mph 19.6 mph 0.00 in Rain Light Rain
6:09 PM 46.4 °F 42.4 °F 42.8 °F 87% 30.20 in 10.0 mi South 8.1 mph - 0.00 in   Overcast
6:26 PM 46.4 °F 41.1 °F 42.8 °F 87% 30.20 in 10.0 mi South 11.5 mph - 0.00 in Rain Light Rain
6:56 PM 46.0 °F 39.9 °F 43.0 °F 89% 30.20 in 8.0 mi South 13.8 mph - 0.00 in Rain Light Rain
7:56 PM 46.0 °F 39.6 °F 43.0 °F 89% 30.22 in 10.0 mi South 15.0 mph - 0.01 in   Overcast
8:56 PM 46.0 °F 39.6 °F 43.0 °F 89% 30.22 in 10.0 mi South 15.0 mph - N/A   Overcast
9:56 PM 45.0 °F 38.9 °F 43.0 °F 93% 30.22 in 5.0 mi South 12.7 mph - 0.01 in Rain Light Rain
10:30 PM 44.6 °F 39.7 °F 42.8 °F 93% 30.23 in 10.0 mi South 9.2 mph - 0.00 in   Overcast
10:56 PM 44.1 °F 37.7 °F 43.0 °F 96% 30.22 in 10.0 mi South 12.7 mph - 0.00 in   Mostly Cloudy
11:08 PM 44.6 °F 38.4 °F 42.8 °F 93% 30.21 in 10.0 mi SSE 12.7 mph - N/A   Scattered Clouds
11:56 PM 44.1 °F 39.0 °F 43.0 °F 96% 30.23 in 10.0 mi South 9.2 mph - N/A   Overcast